Regional Weather Roundup
Issued by NWS

Home | Current Version | Previous Version | Text Only | Print | Product List | Glossary On
Versions: 1 2 3 4 5 6 7 8 9 10 11 12 13 14 15 16 17 18 19 20 21 22 23 24 25 26 27 28 29 30 31 32 33 34 35 36 37 38 39 40 41 42 43 44 45 46 47 48 49 50
000
ASUS45 KPSR 191510
RWRAZ

ARIZONA REGIONAL HOURLY WEATHER ROUNDUP
NATIONAL WEATHER SERVICE PHOENIX AZ
800 AM MST SAT APR 19 2014

NOTE: FAIR INDICATES FEW OR NO CLOUDS BELOW 12,000 FEET WITH NO
SIGNIFICANT WEATHER AND/OR OBSTRUCTIONS TO VISIBILITY.

AZZ001>003-036-191600-
NORTHWEST ARIZONA

CITY           SKY/WX    TMP DP  RH WIND       PRES   REMARKS
BULLHEAD CITY  SUNNY     72  45  37 CALM      29.93R
KINGMAN        SUNNY     58  46  64 NW5       30.01R
$$

AZZ004>008-015-016-018-191600-
NORTH CENTRAL ARIZONA

CITY           SKY/WX    TMP DP  RH WIND       PRES   REMARKS
GRAND CANYON   SUNNY     51  38  60 E5        30.13R
WILLIAMS       SUNNY     45  37  76 CALM      30.18S
PRESCOTT       SUNNY     50  42  74 SW3       30.06S
FLAGSTAFF      MOSUNNY   45  39  79 VRB3      30.14R
PAYSON         MOSUNNY   57  37  47 SE7       30.10R
PAGE           PTSUNNY   60  40  47 CALM      30.06R
$$

AZZ009>014-017-191600-
NORTHEAST ARIZONA

CITY           SKY/WX    TMP DP  RH WIND       PRES   REMARKS
WINSLOW        SUNNY     48  40  73 SE6       30.11S
SAINT JOHNS    CLOUDY    46  42  86 CALM      30.11S
WINDOW ROCK    MOSUNNY   47  33  58 CALM      30.16F
SHOW LOW       CLOUDY    48  34  57 SW3       30.15R
$$

AZZ023-191600-
GREATER PHOENIX AREA

CITY           SKY/WX    TMP DP  RH WIND       PRES   REMARKS
PHOENIX        PTSUNNY   67  45  45 CALM      29.92R
BUCKEYE          N/A     66  45  45 CALM      29.94S
GLENDALE       PTSUNNY   66  45  45 W3        29.94R
LUKE AFB       NOT AVBL
DEER VALLEY    PTSUNNY   67  41  38 CALM      29.94R
SCOTTSDALE     PTSUNNY   64  45  49 S3        29.95R
MESA-FALCON    PTSUNNY   66  43  42 E9        29.94R
MESA-GATEWAY   PTSUNNY   64  50  59 NE9       29.95S
CHANDLER       PTSUNNY   66  46  48 VRB3      29.93S
$$

AZZ027-028-191600-
SOUTHWEST MARICOPA COUNTY AND PINAL COUNTY

CITY           SKY/WX    TMP DP  RH WIND       PRES   REMARKS
CASA GRANDE    PTSUNNY   66  45  45 SE5       29.95R
GILA BEND      PTSUNNY   64  43  45 S1        29.94
$$

AZZ503-504-507>509-191600-
SOUTHEAST ARIZONA

CITY           SKY/WX    TMP DP  RH WIND       PRES   REMARKS
TUCSON         PTSUNNY   66  42  41 S6        30.00R
DAVIS-MONTHAN  CLOUDY    66  46  47 S5        29.99R
RYAN FIELD       N/A     64  39  39 MISG      30.00R
NOGALES        PTSUNNY   63  43  48 SW3       30.02R
SIERRA VISTA   SUNNY     61  44  53 SE9       30.06R
DOUGLAS        PTSUNNY   54  50  86 NW3       30.05S
SAFFORD        CLOUDY    60  48  64 S12       30.03R
$$

AZZ020-021-025-026-031-191600-
SOUTHWEST ARIZONA

CITY           SKY/WX    TMP DP  RH WIND       PRES   REMARKS
YUMA           MOSUNNY   71  49  45 NW5       29.89R
$$

CAZ031-033-041-043-047-048-061-191600-
SOUTHERN CALIFORNIA

CITY           SKY/WX    TMP DP  RH WIND       PRES   REMARKS
DOWNTOWN L.A.  SUNNY     61  52  72 CALM      29.98R
L.A. AIRPORT   MOSUNNY   60  55  83 W6        29.99R
SAN DIEGO      MOSUNNY   63  55  75 N7        29.99R
BURBANK        SUNNY     58  49  72 CALM      29.98R
ONTARIO        MOSUNNY   59  51  75 CALM      29.98R
RIVERSIDE      SUNNY     57  51  80 CALM      29.98R
PALM SPRINGS   SUNNY     69  49  48 N8        29.91S
EL CENTRO NAS  MOSUNNY   70  53  54 CALM      29.89R
IMPERIAL       SUNNY     70  51  51 CALM      29.88R
BLYTHE         MOSUNNY   70  48  45 CALM      29.90R
NEEDLES        MOSUNNY   74  46  36 E3        29.93R
$$

NVZ020-UTZ003-191600-
SOUTHERN NEVADA-UTAH

CITY           SKY/WX    TMP DP  RH WIND       PRES   REMARKS
LAS VEGAS      MOSUNNY   68  41  37 CALM      29.93R
SALT LAKE CITY MOSUNNY   52  42  69 CALM      30.01S
$$

NMZ009-TXZ055-191600-
NEW MEXICO-WEST TEXAS

CITY           SKY/WX    TMP DP  RH WIND       PRES   REMARKS
ALBUQUERQUE    PTSUNNY   58  40  51 NE3       30.13S
EL PASO        CLOUDY    66  50  56 NE6       30.05F
$$


........................KEY........................
SKY/WX - SKY CONDITION/WEATHER
TMP    - TEMPERATURE IN FAHRENHEIT
DP     - DEW POINT IN FAHRENHEIT
RH     - RELATIVE HUMIDITY IN PERCENT
WIND   - DIRECTION AND SPEED IN MILES PER HOUR (MPH)
VRB    - VARIABLE WIND DIRECTION
PRES   - MEAN SEA LEVEL PRESSURE IN INCHES OF MERCURY
         F - FALLING PRESSURE   R - RISING PRESSURE
         S - STEADY PRESSURE
VSB    - VISIBILITY IN MILES
HX     - HEAT INDEX IN FAHRENHEIT
WCI    - WIND CHILL INDEX IN FAHRENHEIT
TC     - TEMPERATURE IN CELSIUS WHICH IS ALSO KNOWN AS
         TEMPERATURE IN CENTIGRADE
AFB    - AIR FORCE BASE
         LUKE AFB IS LUKE AIR FORCE BASE
         DAVIS-MONTHAN IS DAVIS-MONTHAN AIR FORCE BASE
NAS    - NAVAL AIR STATION
         EL CENTRO NAS IS EL CENTRO NAVAL AIR STATION
N/A    - NOT AVAILABLE



USA.gov is the U.S. government's official web portal to all federal, state and local government web resources and services.